CW1459 Weather Reports


time (UTC)temp
F
wind
direction
speed
knots
gust
knots
rain 1hr
in
rain 24hr
in
rain mn
in
humidity
%
barometer
mb
20190419125257 68 204 7.8 15.6 0.00 0.00 0.00 77 1005.6
20190419124259 68 176 7.8 14.8 0.00 0.00 0.00 77 1005.7
20190419123304 68 216 7.0 21.7 0.00 0.00 0.00 78 1005.5
20190419122252 68 199 8.7 13.9 0.00 0.00 0.00 78 1005.5
20190419121257 67 161 11.3 19.1 0.00 0.00 0.00 77 1005.4
20190419120302 67 175 8.7 16.5 0.00 0.00 0.00 79 1005.3
20190419115306 66 238 7.8 13.9 0.00 0.00 0.00 79 1005.2
20190419114251 66 188 9.6 18.2 0.00 0.00 0.00 79 1005.1
20190419113255 66 130 9.6 15.6 0.00 0.00 0.00 79 1005.0
20190419112305 65 188 8.7 16.5 0.00 0.00 0.00 80 1004.9
20190419111300 65 148 9.6 16.5 0.00 0.00 0.00 80 1004.9
20190419110304 65 153 6.1 21.7 0.00 0.00 0.00 80 1004.8
20190419105250 65 180 7.8 19.1 0.00 0.00 0.00 79 1004.7
20190419104259 65 105 7.0 17.4 0.00 0.00 0.00 79 1004.8
20190419103304 65 168 7.0 15.6 0.00 0.00 0.00 79 1004.5
20190419102255 65 167 8.7 16.5 0.00 0.00 0.00 78 1004.4
20190419101303 65 155 7.8 16.5 0.00 0.00 0.00 78 1004.4
20190419100252 65 138 10.4 19.1 0.00 0.00 0.00 78 1004.6
20190419095306 65 182 7.0 14.8 0.00 0.00 0.00 77 1004.4
20190419094253 65 169 7.0 17.4 0.00 0.00 0.00 76 1004.5
20190419093300 66 212 10.4 15.6 0.00 0.00 0.00 76 1004.6
20190419092251 66 160 7.8 13.9 0.00 0.00 0.00 75 1004.8
20190419091303 66 188 9.6 15.6 0.00 0.00 0.00 75 1004.8
20190419090253 66 182 7.0 14.8 0.00 0.00 0.00 74 1005.0
20190419085305 66 147 10.4 20.0 0.00 0.00 0.00 74 1005.2
20190419084251 66 194 8.7 19.1 0.00 0.00 0.00 73 1005.4
20190419083302 67 163 9.6 17.4 0.00 0.00 0.00 72 1005.5
20190419082251 67 181 9.6 17.4 0.00 0.00 0.00 72 1005.5
20190419081300 67 195 7.8 20.9 0.00 0.00 0.00 71 1005.6
20190419080250 67 192 11.3 16.5 0.00 0.00 0.00 70 1005.5
20190419075301 68 170 9.6 23.5 0.00 0.00 0.00 69 1005.5
20190419074253 68 238 10.4 18.2 0.00 0.00 0.00 69 1005.4
20190419073304 68 175 11.3 19.1 0.00 0.00 0.00 68 1005.5
20190419072257 68 186 13.0 21.7 0.00 0.00 0.00 68 1005.4
20190419071248 68 170 9.6 20.9 0.00 0.00 0.00 67 1005.4
20190419070255 68 178 13.9 24.3 0.00 0.00 0.00 67 1005.4
20190419065249 68 197 11.3 18.2 0.00 0.00 0.00 66 1005.6
20190419064302 69 180 9.6 25.2 0.00 0.00 0.00 65 1005.7
20190419063252 69 165 9.6 16.5 0.00 0.00 0.00 64 1005.7
20190419062259 69 187 10.4 16.5 0.00 0.00 0.00 63 1005.8
20190419061248 69 170 10.4 18.2 0.00 0.00 0.00 62 1005.9
20190419060258 69 148 10.4 16.5 0.00 0.00 0.00 61 1006.0
20190419055250 70 181 10.4 17.4 0.00 0.00 0.00 60 1006.1
20190419054257 70 213 9.6 19.1 0.00 0.00 0.00 59 1006.2
20190419053304 70 173 9.6 18.2 0.00 0.00 0.00 58 1006.2
20190419052256 70 170 10.4 17.4 0.00 0.00 0.00 57 1006.3
20190419051305 70 89 9.6 15.6 0.00 0.00 0.00 57 1006.2
20190419050254 71 164 7.8 19.1 0.00 0.00 0.00 57 1006.4
20190419045301 71 169 8.7 17.4 0.00 0.00 0.00 56 1006.5
20190419044301 71 173 9.6 16.5 0.00 0.00 0.00 56 1006.4
20190419043249 71 217 7.8 20.0 0.00 0.00 0.00 56 1006.5
20190419042255 71 159 10.4 17.4 0.00 0.00 0.00 55 1006.5
20190419041302 71 159 11.3 17.4 0.00 0.00 0.00 54 1006.5
20190419040251 71 184 8.7 18.2 0.00 0.00 0.00 54 1006.6
20190419035258 71 193 7.8 17.4 0.00 0.00 0.00 53 1006.6
20190419034248 71 182 8.7 16.5 0.00 0.00 0.00 52 1006.8
20190419033253 72 192 9.6 16.5 0.00 0.00 0.00 51 1006.9
20190419032300 72 189 10.4 20.9 0.00 0.00 0.00 51 1006.8
20190419031253 72 159 9.6 21.7 0.00 0.00 0.00 51 1006.7
20190419030304 72 107 12.2 18.2 0.00 0.00 0.00 50 1006.8
20190419025252 72 198 10.4 19.1 0.00 0.00 0.00 50 1006.9
20190419024256 72 165 8.7 17.4 0.00 0.00 0.00 49 1006.9
20190419023302 73 165 8.7 20.9 0.00 0.00 0.00 49 1006.9
20190419022251 73 207 9.6 21.7 0.00 0.00 0.00 49 1006.9
20190419021304 73 171 8.7 19.1 0.00 0.00 0.00 49 1007.0
20190419020251 73 162 7.0 18.2 0.00 0.00 0.00 49 1007.0
20190419015259 74 225 9.6 20.0 0.00 0.00 0.00 49 1007.1
20190419014306 74 166 11.3 21.7 0.00 0.00 0.00 49 1007.0
20190419013256 74 178 9.6 19.1 0.00 0.00 0.00 50 1007.0
20190419012250 74 165 9.6 15.6 0.00 0.00 0.00 51 1007.0
20190419011302 74 157 10.4 17.4 0.00 0.00 0.00 51 1007.0
20190419010249 74 153 8.7 19.1 0.00 0.00 0.00 52 1006.8
20190419005256 74 146 8.7 14.8 0.00 0.00 0.00 53 1006.7
20190419004308 74 165 8.7 19.1 0.00 0.00 0.00 54 1006.5
20190419003254 73 123 9.6 15.6 0.00 0.00 0.00 56 1006.3
20190419002306 73 84 7.8 13.9 0.00 0.00 0.00 56 1006.4
20190419001253 73 150 5.2 11.3 0.00 0.00 0.00 57 1006.4
20190419000259 73 142 2.6 7.8 0.00 0.00 0.00 56 1006.3
20190418235304 73 165 6.1 12.2 0.00 0.00 0.00 56 1006.3
20190418234249 74 138 2.6 9.6 0.00 0.00 0.00 54 1006.3
20190418233259 75 104 4.3 8.7 0.00 0.00 0.00 53 1006.6
20190418232305 75 154 3.5 8.7 0.00 0.00 0.00 53 1006.6
20190418231251 76 172 4.3 10.4 0.00 0.00 0.00 51 1006.8
20190418230256 76 198 7.8 13.0 0.00 0.00 0.00 51 1006.9
20190418225302 76 176 6.1 12.2 0.00 0.00 0.00 51 1007.0
20190418224248 76 163 4.3 15.6 0.00 0.00 0.00 52 1007.1
20190418223258 76 173 7.0 15.6 0.00 0.00 0.00 52 1007.4
20190418222303 76 160 7.0 13.0 0.00 0.00 0.00 52 1007.6
20190418221248 76 143 5.2 12.2 0.00 0.00 0.00 53 1007.9
20190418220252 76 175 7.8 14.8 0.00 0.00 0.00 53 1008.0
20190418215259 76 197 7.0 16.5 0.00 0.00 0.00 52 1008.0
20190418214304 76 148 9.6 18.2 0.00 0.00 0.00 52 1008.1
20190418213252 76 188 10.4 16.5 0.00 0.00 0.00 51 1008.2
20190418212258 75 167 4.3 15.6 0.00 0.00 0.00 54 1008.3
20190418211304 75 126 3.5 14.8 0.00 0.00 0.00 56 1008.5
20190418210307 75 159 8.7 14.8 0.00 0.00 0.00 54 1008.7
20190418205254 75 154 9.6 18.2 0.00 0.00 0.00 54 1008.8
20190418204307 75 163 6.1 16.5 0.00 0.00 0.00 57 1008.9
20190418203252 75 142 7.0 16.5 0.00 0.00 0.00 56 1008.9
20190418202302 74 161 6.1 14.8 0.00 0.00 0.00 59 1009.1
20190418201303 74 181 8.7 16.5 0.00 0.00 0.00 58 1009.2
20190418200309 74 175 6.1 13.9 0.00 0.00 0.00 59 1009.5
20190418195257 74 150 6.1 15.6 0.00 0.00 0.00 58 1009.6
20190418194304 73 105 7.8 14.8 0.00 0.00 0.00 60 1009.7
20190418193308 73 190 1.7 13.9 0.00 0.00 0.00 64 1010.0
20190418192251 72 157 6.1 12.2 0.00 0.00 0.00 63 1010.4
20190418191256 71 153 7.8 14.8 0.00 0.00 0.00 64 1010.7
20190418190257 71 177 6.1 14.8 0.00 0.00 0.00 65 1010.9
20190418185304 70 159 6.1 12.2 0.00 0.00 0.00 65 1011.0
20190418184256 70 157 2.6 8.7 0.00 0.00 0.00 65 1011.1
20190418183301 69 152 4.3 9.6 0.00 0.00 0.00 66 1011.3
20190418182250 69 154 3.5 7.8 0.00 0.00 0.00 63 1011.4
20190418181257 69 138 2.6 8.7 0.00 0.00 0.00 64 1011.8
20190418180301 69 186 6.1 9.6 0.00 0.00 0.00 65 1011.9
20190418175304 70 179 4.3 13.9 0.00 0.00 0.00 65 1012.0
20190418174255 70 118 3.5 8.7 0.00 0.00 0.00 65 1012.0
20190418173259 69 188 2.6 7.8 0.00 0.00 0.00 65 1012.2
20190418172307 69 166 5.2 9.6 0.00 0.00 0.00 66 1012.3
20190418171252 68 212 4.3 8.7 0.00 0.00 0.00 69 1012.5
20190418170255 67 150 7.0 11.3 0.00 0.00 0.00 70 1012.7
20190418165259 66 230 5.2 8.7 0.00 0.00 0.00 70 1012.9
20190418164251 65 175 2.6 7.8 0.00 0.00 0.00 71 1012.9
20190418163255 64 177 3.5 7.8 0.00 0.00 0.00 72 1013.0
20190418162304 63 259 1.7 5.2 0.00 0.00 0.00 73 1013.3
20190418161308 63 229 1.7 8.7 0.00 0.00 0.00 74 1013.3
20190418160254 62 203 0.9 7.8 0.00 0.00 0.00 75 1013.8
20190418155301 61 316 5.2 8.7 0.00 0.00 0.00 77 1014.1
20190418154309 61 185 4.3 7.8 0.00 0.00 0.00 77 1014.4
20190418153309 60 175 2.6 7.0 0.00 0.00 0.00 77 1014.5
20190418152254 60 178 2.6 5.2 0.00 0.00 0.00 79 1014.4
20190418151300 60 242 2.6 6.1 0.00 0.00 0.00 79 1014.5
20190418150308 59 168 0.9 5.2 0.00 0.00 0.00 79 1014.5
20190418145300 59 215 4.3 6.1 0.00 0.00 0.00 79 1014.5
20190418144304 59 139 3.5 7.0 0.00 0.00 0.00 80 1014.5
20190418143308 59 138 0.9 7.0 0.00 0.00 0.00 79 1014.6
20190418142257 59 190 2.6 7.0 0.00 0.00 0.00 79 1014.7
20190418141303 59 150 1.7 7.8 0.00 0.00 0.00 79 1014.6
20190418140250 58 139 2.6 7.0 0.00 0.00 0.00 81 1014.6
20190418135253 58 101 5.2 8.7 0.00 0.00 0.00 80 1014.7
20190418134256 58 114 5.2 9.6 0.00 0.00 0.00 81 1014.4
20190418133302 57 121 2.6 7.8 0.00 0.00 0.00 83 1014.7
20190418132309 56 101 5.2 9.6 0.00 0.00 0.00 84 1014.7
20190418131259 56 96 5.2 9.6 0.00 0.00 0.00 84 1014.9
20190418130307 56 142 1.7 8.7 0.00 0.00 0.00 85 1014.9